EW6171 Weather Reports


time (UTC)temp
F
wind
direction
speed
knots
gust
knots
rain 1hr
in
rain 24hr
in
rain mn
in
humidity
%
barometer
mb
20260504110351 0 10 0.0 1.7 0.00 0.00 0.00 1012.2
20260504100244 0 109 0.0 0.9 0.00 0.00 0.00 1012.5
20260504090118 0 118 0.0 1.7 0.00 0.00 0.00 1012.9
20260504081459 0 127 0.0 0.0 0.00 0.00 0.00 1013.1
20260504080950 0 127 0.0 0.0 0.00 0.00 0.00 1013.1
20260504080439 0 154 0.0 0.0 0.00 0.00 0.00 1013.3
20260504080201 0 110 0.0 0.0 0.00 0.00 0.00 1013.5
20260504070247 0 140 0.0 0.0 0.00 0.00 0.00 1014.5
20260504050354 0 115 2.6 3.5 0.00 0.00 0.00 1015.6
20260504050115 0 115 2.6 3.5 0.00 0.00 0.00 1015.7
20260504045606 0 117 3.5 3.5 0.00 0.00 0.00 1015.8
20260504045055 0 115 3.5 5.2 0.00 0.00 0.00 1015.8
20260504044545 0 122 3.5 3.5 0.00 0.00 0.00 1015.8
20260504043805 0 10 2.6 3.5 0.00 0.00 0.00 1015.9
20260504043254 0 137 2.6 3.5 0.00 0.00 0.00 1015.9
20260504042744 0 10 2.6 3.5 0.00 0.00 0.00 1015.9
20260504042234 0 127 3.5 3.5 0.00 0.00 0.00 1015.9
20260504041734 0 113 3.5 3.5 0.00 0.00 0.00 1015.9
20260504041226 0 128 2.6 3.5 0.00 0.00 0.00 1015.9
20260504040716 0 110 2.6 3.5 0.00 0.00 0.00 1015.8
20260504040206 0 115 2.6 3.5 0.00 0.00 0.00 1015.9
20260504035654 0 111 1.7 3.5 0.00 0.00 0.00 1015.9
20260504035136 0 108 1.7 2.6 0.00 0.00 0.00 1015.8
20260504034626 0 105 1.7 2.6 0.00 0.00 0.00 1015.8
20260504034116 0 106 1.7 3.5 0.00 0.00 0.00 1015.9
20260504033606 0 107 2.6 3.5 0.00 0.00 0.00 1015.9
20260504033056 0 112 3.5 3.5 0.00 0.00 0.00 1015.9
20260504032546 0 10 2.6 3.5 0.00 0.00 0.00 1015.8
20260504032028 0 10 2.6 3.5 0.00 0.00 0.00 1015.8
20260504031525 0 119 1.7 3.5 0.00 0.00 0.00 1015.8
20260504031023 0 125 1.7 3.5 0.00 0.00 0.00 1015.9
20260504030522 0 118 2.6 3.5 0.00 0.00 0.00 1015.7
20260504030002 0 116 3.5 3.5 0.00 0.00 0.00 1015.6
20260504025452 0 10 2.6 3.5 0.00 0.00 0.00 1015.5
20260504024942 0 10 2.6 3.5 0.00 0.00 0.00 1015.5
20260504024433 0 114 3.5 3.5 0.00 0.00 0.00 1015.6
20260504024155 0 10 3.5 3.5 0.00 0.00 0.00 1015.6
20260504023412 0 123 3.5 3.5 0.00 0.00 0.00 1015.5
20260504022902 0 115 3.5 4.3 0.00 0.00 0.00 1015.5
20260504022352 0 115 3.5 4.3 0.00 0.00 0.00 1015.4
20260504021842 0 114 3.5 3.5 0.00 0.00 0.00 1015.4
20260504021332 0 10 3.5 3.5 0.00 0.00 0.00 1015.4
20260504020822 0 129 3.5 5.2 0.00 0.00 0.00 1015.5
20260504020312 0 115 3.5 5.2 0.00 0.00 0.00 1015.4
20260504015806 0 127 3.5 3.5 0.00 0.00 0.00 1015.4
20260504015258 0 121 3.5 5.2 0.00 0.00 0.00 1015.4
20260504014748 0 123 3.5 5.2 0.00 0.00 0.00 1015.4
20260504014238 0 10 2.6 5.2 0.00 0.00 0.00 1015.4
20260504013732 0 10 2.6 5.2 0.00 0.00 0.00 1015.4
20260504013222 0 123 3.5 5.2 0.00 0.00 0.00 1015.3
20260504012208 0 10 3.5 7.0 0.00 0.00 0.00 1015.4
20260504011658 0 118 4.3 7.0 0.00 0.00 0.00 1015.3
20260504011148 0 138 4.3 7.8 0.00 0.00 0.00 1015.4
20260504010639 0 10 4.3 7.0 0.00 0.00 0.00 1015.4
20260504010132 0 138 5.2 7.8 0.00 0.00 0.00 1015.4
20260504005120 0 10 5.2 8.7 0.00 0.00 0.00 1015.4
20260504004618 0 10 5.2 8.7 0.00 0.00 0.00 1015.4
20260504004344 0 10 6.1 9.6 0.00 0.00 0.00 1015.4
20260504003609 0 10 7.0 9.6 0.00 0.00 0.00 1015.4
20260504003102 0 10 7.0 8.7 0.00 0.00 0.00 1015.4
20260504002601 0 159 7.0 10.4 0.00 0.00 0.00 1015.4
20260504002055 0 10 7.0 10.4 0.00 0.00 0.00 1015.3
20260504001550 0 10 6.1 9.6 0.00 0.00 0.00 1015.3
20260504001045 0 10 6.1 9.6 0.00 0.00 0.00 1015.4
20260504000539 0 10 7.8 10.4 0.00 0.00 0.00 1015.6
20260504000031 0 10 7.0 10.4 0.00 0.00 0.00 1015.6
20260503235523 0 10 7.8 10.4 0.00 0.00 0.00 1015.6
20260503235019 0 10 8.7 10.4 0.00 0.00 0.00 1015.5
20260503234516 0 153 8.7 10.4 0.00 0.00 0.00 1015.5
20260503234014 0 10 8.7 10.4 0.00 0.00 0.00 1015.4
20260503233746 0 10 9.6 12.2 0.00 0.00 0.00 1015.5
20260503233011 0 10 8.7 12.2 0.00 0.00 0.00 1015.5
20260503232737 0 10 7.8 12.2 0.00 0.00 0.00 1015.6
20260503232002 0 10 7.8 12.2 0.00 0.00 0.00 1015.6
20260503231456 0 163 7.8 11.3 0.00 0.00 0.00 1015.8
20260503230950 0 10 7.8 10.4 0.00 0.00 0.00 1015.7
20260503230714 0 10 7.8 10.4 0.00 0.00 0.00 1015.7
20260503225940 0 10 8.7 12.2 0.00 0.00 0.00 1015.8
20260503225432 0 10 8.7 12.2 0.00 0.00 0.00 1015.7
20260503224927 0 134 8.7 10.4 0.00 0.00 0.00 1015.7
20260503224417 0 10 9.6 13.0 0.00 0.00 0.00 1015.8
20260503223909 0 10 8.7 13.0 0.00 0.00 0.00 1015.8
20260503223406 0 10 8.7 13.0 0.00 0.00 0.00 1015.9
20260503222855 0 187 8.7 12.2 0.00 0.00 0.00 1015.9
20260503222348 0 10 8.7 11.3 0.00 0.00 0.00 1015.8
20260503221839 0 10 8.7 12.2 0.00 0.00 0.00 1015.9
20260503221329 0 164 8.7 10.4 0.00 0.00 0.00 1016.0
20260503220822 0 10 8.7 11.3 0.00 0.00 0.00 1016.1
20260503220312 0 10 8.7 11.3 0.00 0.00 0.00 1016.2
20260503215249 0 193 8.7 11.3 0.00 0.00 0.00 1016.4
20260503214733 0 10 8.7 11.3 0.00 0.00 0.00 1016.4
20260503214224 0 10 8.7 12.2 0.00 0.00 0.00 1016.4
20260503213713 0 172 8.7 12.2 0.00 0.00 0.00 1016.5
20260503213434 0 10 8.7 13.0 0.00 0.00 0.00 1016.5
20260503212648 0 192 8.7 13.0 0.00 0.00 0.00 1016.7
20260503212137 0 192 8.7 12.2 0.00 0.00 0.00 1016.9
20260503211346 0 10 8.7 11.3 0.00 0.00 0.00 1017.0
20260503210605 0 10 9.6 12.2 0.00 0.00 0.00 1017.0
20260503210326 0 10 8.7 12.2 0.00 0.00 0.00 1017.0
20260503205546 0 10 8.7 12.2 0.00 0.00 0.00 1017.1
20260503205307 0 162 9.6 13.0 0.00 0.00 0.00 1017.1
20260503204525 0 194 9.6 13.0 0.00 0.00 0.00 1017.2
20260503204016 0 10 9.6 13.0 0.00 0.00 0.00 1017.4
20260503203506 0 164 9.6 12.2 0.00 0.00 0.00 1017.4
20260503202949 0 10 9.6 13.0 0.00 0.00 0.00 1017.4
20260503202712 0 195 9.6 13.0 0.00 0.00 0.00 1017.4
20260503201922 0 10 9.6 13.0 0.00 0.00 0.00 1017.5
20260503201411 0 173 8.7 13.0 0.00 0.00 0.00 1017.5
20260503200901 0 188 9.6 13.0 0.00 0.00 0.00 1017.6
20260503200620 0 186 9.6 13.0 0.00 0.00 0.00 1017.6
20260503195845 0 10 9.6 13.0 0.00 0.00 0.00 1017.8
20260503195336 0 10 8.7 13.0 0.00 0.00 0.00 1017.8
20260503194824 0 181 8.7 13.0 0.00 0.00 0.00 1017.9
20260503194313 0 154 9.6 13.0 0.00 0.00 0.00 1018.0
20260503193803 0 10 8.7 13.0 0.00 0.00 0.00 1017.9
20260503193259 0 10 7.8 13.9 0.00 0.00 0.00 1018.0
20260503192747 0 217 8.7 12.2 0.00 0.00 0.00 1018.1
20260503192237 0 10 8.7 12.2 0.00 0.00 0.00 1018.1
20260503191718 0 10 8.7 11.3 0.00 0.00 0.00 1018.1
20260503191205 0 10 7.8 11.3 0.00 0.00 0.00 1018.2
20260503190656 0 10 7.8 10.4 0.00 0.00 0.00 1018.4
20260503190155 0 10 7.0 11.3 0.00 0.00 0.00 1018.4
20260503185644 0 10 7.0 11.3 0.00 0.00 0.00 1018.4
20260503185133 0 210 7.0 10.4 0.00 0.00 0.00 1018.4
20260503184624 0 10 7.8 11.3 0.00 0.00 0.00 1018.5
20260503184113 0 10 7.0 11.3 0.00 0.00 0.00 1018.6
20260503183605 0 10 6.1 9.6 0.00 0.00 0.00 1018.8
20260503183053 0 10 7.0 10.4 0.00 0.00 0.00 1018.9
20260503182544 0 10 6.1 10.4 0.00 0.00 0.00 1018.9
20260503182034 0 203 6.1 9.6 0.00 0.00 0.00 1019.0
20260503181523 0 203 6.1 9.6 0.00 0.00 0.00 1019.1
20260503181244 0 10 6.1 9.6 0.00 0.00 0.00 1019.2
20260503175946 0 10 6.1 10.4 0.00 0.00 0.00 1019.2
20260503175435 0 10 4.3 9.6 0.00 0.00 0.00 1019.4
20260503174925 0 138 3.5 10.4 0.00 0.00 0.00 1019.4
20260503174415 0 198 4.3 10.4 0.00 0.00 0.00 1019.5
20260503173905 0 88 6.1 9.6 0.00 0.00 0.00 1019.7
20260503173355 0 90 5.2 9.6 0.00 0.00 0.00 1019.8
20260503172848 0 93 5.2 9.6 0.00 0.00 0.00 1019.9
20260503172338 0 78 6.1 9.6 0.00 0.00 0.00 1020.0
20260503171830 0 65 5.2 9.6 0.00 0.00 0.00 1020.0
20260503171319 0 87 3.5 9.6 0.00 0.00 0.00 1020.1
20260503170809 0 104 4.3 8.7 0.00 0.00 0.00 1020.1
20260503170259 0 97 6.1 9.6 0.00 0.00 0.00 1020.2
20260503160105 0 73 3.5 7.0 0.00 0.00 0.00 1020.4
20260503150849 0 10 4.3 7.8 0.00 0.00 0.00 1020.2
20260503150345 0 111 2.6 7.8 0.00 0.00 0.00 1020.1
20260503140239 0 59 0.0 1.7 0.00 0.00 0.00 1019.7
20260503131200 0 352 0.0 1.7 0.00 0.00 0.00 1019.6
20260503130655 0 348 0.0 1.7 0.00 0.00 0.00 1019.5
20260503130152 0 27 0.0 1.7 0.00 0.00 0.00 1019.4